Location: Bothwell
(42.3833°S, 147.0000°E)
Time: 20:52:06
(UTC+11:00)

RS-44 - Pass Details

Date: 30 September 2022
Orbit: 1175 x 1510 km, 82.5° (Epoch: 29 November)

Event Time Altitude Azimuth Distance (km) Brightness Sun altitude
Exits shadow 00:44:06 22° 238° (WSW) 2,852 ? -44.1°
Drops below altitude 10° 00:50:16 10° 194° (SSW) 3,699 ? -43.8°
Sets 00:54:14 0° 179° (S) 4,687 ? -43.5°
